COSMOS 1526

Satellite information

Favourite Embed

Satellite Type and Status

PAYLOADIN ORBIT

Key statistics

Satellite COSMOS 1526 at a glance.

Uptime

15160

Days in orbit

Revolutions

≈ 12.5

Per day

Orbit

LEO

Low Earth Orbit

Inclination

74.0

Latest

Satellite identification and parameters

Extended collection of information and parameters for COSMOS 1526.

Object identification

Identified? True

Debris? False

Object name: COSMOS 1526

International designator: 1984-001E

Object number (NORAD): 14615

Object ID (CCSDS): 14615

Country: COMMONWEALTH OF INDEPENDENT STATES (CIS)

Current information (Y/N): Y

RCS size: MEDIUM

Orbital parameters

Period: 114.92 minutes

Inclination: 74.0096 deg

SMA: 7829.906 km

Apoapsis: 1461.58 km

Periapsis: 1441.963 km

RAAN: 293.5547 deg

Eccentricy: 0.0012527

Argument of periapsis: 265.8436 deg

Mean anomaly: 209.2837 deg

Mean motion: 12.53048553 rev/day

Mean motion (dot): -0.00000025 rev/day2

B* drag term: -0.00005499 1/REarth

Two-line elements (TLE)

Creation date: July 8, 2025, 2:27 a.m.

Reference frame: TEME

Reference center: EARTH

Epoch: July 7, 2025, 5:26 p.m. UTC

TLE line 0: 0 COSMOS 1526

TLE line 1: 1 14615U 84001E 25188.72682779 -.00000025 00000-0 -54990-4 0 9992

TLE line 2: 2 14615 74.0096 293.5547 0012527 265.8436 209.2837 12.53048553898430

Live tracking on map

Real-time ground track for satellite COSMOS 1526.

In-orbit conjunctions

A list of the most updated potential collisions computed for object COSMOS 1526.

Target Orbit TCA Probability of collision Miss distance Type
DELTA 1 DEB SSO 2025-04-12 03:54:30 0.0001407821 162.0 (m) DEBRIS
THORAD DELTA 1 DEB SSO 2025-01-30 01:37:15 0.00316555 12.0 (m) DEBRIS

Associated space launch

Military communications satellites

COSMOS 1526 was lifted into orbit during the mission ‘Kosmos-3M | Strela-1M 273-280’, on board a Kosmos-3M space rocket.

The launch took place on Jan. 5, 1984, 8:09 p.m. from 132/2.

For more information about the launch, click the button.

Launch to space Kosmos-3M | Strela-1M 273-280
Kosmos-3M | Strela-1M 273-280

Agency: N/A

Status: Launch Successful

Launch date: Jan. 5, 1984, 8:09 p.m. UTC

Rocket: Kosmos-3M

Launch pad: 132/2

Location: Plesetsk Cosmodrome, Russian Federation

...

Latest news about this satellite

There are no fresh news available about this satellite. Check back as we update our databases every day.


Newsletter sign-up

Weekly statistics, charts and insights to help you stay on top of the space industry.